STARLINK-32188, 60365

Orbit data source: Space-Track

STARLINK-32188, 60365 is a payload satellite owned by SpaceX/Seattle (US) in LEO that was launched on Sun, 04 Aug 2024 UTC via an FALCON 9 launch vehicle from the Air Force Western Test Range (AFWTR). Payload-class satellites include a variety of spacecraft equipped with specific instruments for various scientific and technological missions. These include communications satellites like Starlink; space stations such as the ISS; scientific satellites like the Hubble; Earth observation satellites from companies like Planet Labs, Umbra, and HawkEye 360; GPS; miniature CubeSats for education and research; and military/defense satellites.

Loading next visibility...
Identifier
60365, 2024-138L
Orbit
LEO
Last TLE update
13 hours ago
Origin
Manufacturer
SpaceX/Seattle
Mission
Operational Commercial Communications
Bus & Motor
STARLINK V2M, Unknown motor
Mass
730 kg wet, ~700 kg dry
Launch date (UTC)
2024-08-04 (11 months ago)
Launch vehicle
FALCON 9
Launch site
Air Force Western Test Range (AFWTR)
Object type
Payload
Rocket body
Debris
Shape & HBR
Box + 2 Pan, 29 m
Radar Cross Section
33.884 m², Large (>1 m²)

Expand to show TLE details & history

TLE from 13 hours ago
0 STARLINK-32188
1 60365U 24138L   25181.87930562 -.00000454  00000-0 -31951-5 0  9994
2 60365  53.1610  39.2857 0001031  86.0409 274.0709 15.30192312 52074
Epoch: 2025-06-30T21:06Z
TLE epoch observation values (Epoch: 2025-06-30T21:06:12.005Z)
Latitude
-0.00008°
Longitude
163.55284°
Altitude
476.088 km
Speed
7.629 km/s
True Right ascension
02h 37m 08s
True Declination
0° 00' 00"
Sunlit
Object was in daylight at epoch
Visualization orbit readout
Latitude
15.91421°
Longitude
-31.27389°
Altitude
475.242 km
Speed
7.631 km/s
Apparent Right ascension
12h 05m 47s
Apparent Declination
-12° 08' 54"
Sunlit
Object is in daylight
Visualization observer readout
Local Sidereal Time
21:58:49
Azimuth
305.884° NW
Elevation
-50.597°
Doppler factor
1
Orbital elements
Apogee altitude
476.201 km
Perigee altitude
474.788 km
Semi-major axis
6,853.631 km
Eccentricity
0.0001
Inclination
53.161°
RAAN
39.2857°
Arg. of periapsis
86.0409°
True anomaly
Unknown
Mean anomaly
274.0709°
Eccentric anomaly
Unknown
Mean motion
3.82527 °/min
Orbital period
94.11 mins
BSTAR
-0.0000031951
Loading maneuver chart data...
Loading SW <> Apogee altitude chart data...
Loading historical data...
Loading historical data...
Loading historical data...
Loading historical data...
Loading historical data...
Loading historical data...
Loading historical data...

STARLINK-32188 Visibility forecast

Observer location: undefined°, undefined°

Span
Click to sort rows by Start time (UTC) header in descending order
Start Az.
Max El. time (UTC)
Max El. Az.
Max El.
End time (UTC)
End Az.
4 mins2025-07-01 16:04:23.513Z163.908° S2025-07-01 16:06:23.513Z124.905° SE17.485°2025-07-01 16:08:23.513Z88.465° E
6 mins2025-07-01 17:41:23.513Z252.717° W2025-07-01 17:43:23.513Z295.471° NW36.259°2025-07-01 17:47:23.513Z41.463° NE
4 mins2025-07-01 22:39:23.513Z354.879° N2025-07-01 22:40:23.513Z17.481° NNE20.673°2025-07-01 22:43:23.513Z76.695° E
6 mins2025-07-02 00:16:23.513Z299.338° NW2025-07-02 00:18:23.513Z261.614° W38.79°2025-07-02 00:22:23.513Z143.796° SSE
|